When you browse on this site, cookies collect data to enhance your experience and personalize the content and advertising you see.
Visit our Privacy Policy to learn more. By continuing to use the site, you agree to this use of cookies and data.
  • In Portugal
  • List of Countries
  • For 7 days
  • Water Temperature
  • Satellite Maps
  • Weather Map
  • Weather Widgets
  • user-avatar
    Login

    Hourly Weather Semikino

    Today, 19 July, Friday

    Time Temperature Precipitation Wind Pressure Humidity
    00:00 +16°C° 0 mm 2 mps 746 mmHg 91%
    01:00 +15°C° 0 mm 2 mps 746 mmHg 92%
    02:00 +15°C° 0 mm 2 mps 746 mmHg 93%
    03:00 +14°C° 0 mm 1 mps 747 mmHg 94%
    04:00 +15°C° 0 mm 2 mps 747 mmHg 93%
    05:00 +15°C° 0 mm 2 mps 747 mmHg 91%
    06:00 +15°C° 0 mm 2 mps 747 mmHg 90%
    07:00 +17°C° 0 mm 3 mps 747 mmHg 82%
    08:00 +19°C° 0 mm 4 mps 747 mmHg 75%
    09:00 +20°C° 0 mm 4 mps 747 mmHg 67%
    10:00 +21°C° 0 mm 5 mps 747 mmHg 64%
    11:00 +22°C° 0 mm 5 mps 747 mmHg 61%
    12:00 +23°C° 0 mm 5 mps 747 mmHg 58%
    13:00 +23°C° 0 mm 5 mps 747 mmHg 58%
    14:00 +25°C° 0 mm 5 mps 747 mmHg 58%
    15:00 +25°C° 0 mm 5 mps 747 mmHg 57%
    16:00 +23°C° 0.1 mm 5 mps 747 mmHg 61%
    17:00 +23°C° 0.1 mm 4 mps 747 mmHg 66%
    18:00 +22°C° 0.1 mm 4 mps 748 mmHg 70%
    19:00 +21°C° 0 mm 3 mps 748 mmHg 76%
    20:00 +19°C° 0 mm 3 mps 748 mmHg 81%
    21:00 +18°C° 0 mm 3 mps 748 mmHg 86%
    22:00 +18°C° 0 mm 3 mps 748 mmHg 88%
    23:00 +17°C° 0 mm 3 mps 748 mmHg 90%

    Tomorrow, 20 July, Saturday

    Time Temperature Precipitation Wind Pressure Humidity
    00:00 +16°C° 0 mm 3 mps 748 mmHg 91%
    01:00 +16°C° 0 mm 3 mps 749 mmHg 93%
    02:00 +14°C° 0 mm 3 mps 749 mmHg 94%
    03:00 +14°C° 0 mm 3 mps 749 mmHg 95%
    04:00 +14°C° 0 mm 3 mps 749 mmHg 93%
    05:00 +14°C° 0 mm 3 mps 750 mmHg 90%
    06:00 +15°C° 0 mm 4 mps 750 mmHg 87%
    07:00 +17°C° 0 mm 4 mps 750 mmHg 80%
    08:00 +19°C° 0 mm 5 mps 750 mmHg 73%
    09:00 +20°C° 0 mm 6 mps 750 mmHg 66%
    10:00 +21°C° 0 mm 6 mps 751 mmHg 62%
    11:00 +23°C° 0 mm 6 mps 751 mmHg 59%
    12:00 +24°C° 0 mm 6 mps 751 mmHg 55%
    13:00 +24°C° 0.1 mm 6 mps 751 mmHg 54%
    14:00 +24°C° 0.1 mm 6 mps 751 mmHg 53%
    15:00 +26°C° 0.1 mm 5 mps 751 mmHg 52%
    16:00 +25°C° 0 mm 5 mps 751 mmHg 55%
    17:00 +25°C° 0 mm 4 mps 751 mmHg 59%
    18:00 +25°C° 0 mm 3 mps 751 mmHg 62%
    19:00 +22°C° 0 mm 3 mps 751 mmHg 67%
    20:00 +20°C° 0 mm 3 mps 751 mmHg 73%
    21:00 +18°C° 0 mm 3 mps 751 mmHg 78%
    22:00 +18°C° 0 mm 3 mps 751 mmHg 79%
    23:00 +17°C° 0 mm 3 mps 751 mmHg 81%

    Day after tomorrow, 21 July, Sunday

    Time Temperature Precipitation Wind Pressure Humidity
    00:00 +17°C° 0 mm 3 mps 752 mmHg 82%
    01:00 +16°C° 0 mm 3 mps 752 mmHg 85%
    02:00 +16°C° 0 mm 3 mps 752 mmHg 88%
    03:00 +14°C° 0 mm 3 mps 752 mmHg 90%
    04:00 +16°C° 0 mm 3 mps 752 mmHg 88%
    05:00 +16°C° 0 mm 3 mps 752 mmHg 87%
    06:00 +17°C° 0 mm 4 mps 752 mmHg 85%
    07:00 +18°C° 0 mm 4 mps 752 mmHg 79%
    08:00 +20°C° 0 mm 4 mps 752 mmHg 73%
    09:00 +22°C° 0 mm 5 mps 752 mmHg 67%
    10:00 +23°C° 0 mm 5 mps 752 mmHg 64%
    11:00 +25°C° 0 mm 5 mps 752 mmHg 60%
    12:00 +26°C° 0 mm 5 mps 752 mmHg 56%
    13:00 +26°C° 0 mm 5 mps 752 mmHg 55%
    14:00 +26°C° 0 mm 5 mps 752 mmHg 53%
    15:00 +27°C° 0 mm 5 mps 751 mmHg 52%
    16:00 +26°C° 0 mm 4 mps 751 mmHg 55%
    17:00 +26°C° 0 mm 3 mps 751 mmHg 59%
    18:00 +25°C° 0 mm 3 mps 751 mmHg 62%
    19:00 +22°C° 0 mm 3 mps 751 mmHg 68%
    20:00 +21°C° 0 mm 2 mps 751 mmHg 74%
    21:00 +19°C° 0 mm 2 mps 751 mmHg 79%
    22:00 +18°C° 0 mm 2 mps 751 mmHg 80%
    23:00 +18°C° 0 mm 2 mps 751 mmHg 81%

    22 July, Monday

    Time Temperature Precipitation Wind Pressure Humidity
    00:00 +17°C° 0 mm 2 mps 751 mmHg 81%
    01:00 +17°C° 0 mm 2 mps 751 mmHg 84%
    02:00 +16°C° 0 mm 2 mps 751 mmHg 86%
    03:00 +16°C° 0 mm 3 mps 751 mmHg 89%
    04:00 +16°C° 0 mm 2 mps 751 mmHg 88%
    05:00 +17°C° 0 mm 2 mps 751 mmHg 88%
    06:00 +17°C° 0 mm 2 mps 751 mmHg 87%
    07:00 +19°C° 0 mm 2 mps 751 mmHg 80%
    08:00 +21°C° 0 mm 2 mps 751 mmHg 74%
    09:00 +22°C° 0 mm 3 mps 751 mmHg 67%
    10:00 +24°C° 0 mm 3 mps 751 mmHg 62%
    11:00 +25°C° 0 mm 3 mps 751 mmHg 57%
    12:00 +27°C° 0 mm 3 mps 751 mmHg 52%
    13:00 +27°C° 0 mm 3 mps 750 mmHg 51%
    14:00 +27°C° 0 mm 3 mps 750 mmHg 49%
    15:00 +28°C° 0 mm 3 mps 750 mmHg 48%
    16:00 +27°C° 0 mm 2 mps 750 mmHg 51%
    17:00 +27°C° 0 mm 2 mps 750 mmHg 55%
    18:00 +27°C° 0 mm 1 mps 750 mmHg 58%
    19:00 +25°C° 0 mm 1 mps 750 mmHg 64%
    20:00 +23°C° 0 mm 1 mps 749 mmHg 69%
    21:00 +21°C° 0 mm 1 mps 749 mmHg 75%
    22:00 +20°C° 0 mm 1 mps 749 mmHg 78%
    23:00 +20°C° 0 mm 1 mps 749 mmHg 80%

    23 July, Tuesday

    Time Temperature Precipitation Wind Pressure Humidity
    00:00 +18°C° 0 mm 2 mps 749 mmHg 82%
    01:00 +18°C° 0 mm 2 mps 748 mmHg 82%
    02:00 +18°C° 0 mm 2 mps 748 mmHg 82%
    03:00 +18°C° 0 mm 2 mps 748 mmHg 82%
    04:00 +18°C° 0 mm 2 mps 748 mmHg 81%
    05:00 +18°C° 0 mm 2 mps 748 mmHg 81%
    06:00 +19°C° 0 mm 2 mps 747 mmHg 80%
    07:00 +20°C° 0.2 mm 2 mps 747 mmHg 79%
    08:00 +20°C° 0.2 mm 3 mps 747 mmHg 78%
    09:00 +21°C° 0.2 mm 3 mps 747 mmHg 77%
    10:00 +22°C° 0.6 mm 3 mps 747 mmHg 74%
    11:00 +25°C° 0.6 mm 4 mps 746 mmHg 72%
    12:00 +26°C° 0.6 mm 4 mps 746 mmHg 70%
    13:00 +25°C° 1.6 mm 4 mps 746 mmHg 75%
    14:00 +24°C° 1.6 mm 3 mps 746 mmHg 80%
    15:00 +24°C° 1.6 mm 3 mps 746 mmHg 85%
    16:00 +22°C° 2.6 mm 3 mps 746 mmHg 88%
    17:00 +21°C° 2.6 mm 2 mps 745 mmHg 91%
    18:00 +19°C° 2.6 mm 2 mps 745 mmHg 94%
    19:00 +19°C° 0.2 mm 2 mps 745 mmHg 94%
    20:00 +19°C° 0.2 mm 2 mps 745 mmHg 94%
    21:00 +18°C° 0.2 mm 3 mps 745 mmHg 94%
    22:00 +18°C° 0 mm 3 mps 745 mmHg 95%
    23:00 +17°C° 0 mm 3 mps 745 mmHg 95%

    24 July, Wednesday

    Time Temperature Precipitation Wind Pressure Humidity
    00:00 +16°C° 0 mm 3 mps 745 mmHg 96%
    01:00 +16°C° 0 mm 2 mps 745 mmHg 96%
    02:00 +16°C° 0 mm 2 mps 745 mmHg 97%
    03:00 +15°C° 0 mm 1 mps 745 mmHg 97%
    04:00 +16°C° 0 mm 1 mps 745 mmHg 96%
    05:00 +16°C° 0 mm 1 mps 745 mmHg 96%
    06:00 +18°C° 0 mm 1 mps 745 mmHg 95%
    07:00 +19°C° 0 mm 1 mps 745 mmHg 91%
    08:00 +19°C° 0 mm 1 mps 745 mmHg 86%
    09:00 +19°C° 0 mm 2 mps 745 mmHg 82%
    10:00 +20°C° 0 mm 2 mps 745 mmHg 78%
    11:00 +22°C° 0 mm 1 mps 745 mmHg 74%
    12:00 +23°C° 0 mm 1 mps 746 mmHg 71%
    13:00 +23°C° 0.1 mm 2 mps 746 mmHg 70%
    14:00 +23°C° 0.1 mm 2 mps 746 mmHg 70%
    15:00 +22°C° 0.1 mm 3 mps 746 mmHg 69%
    16:00 +22°C° 0.1 mm 3 mps 746 mmHg 70%
    17:00 +21°C° 0.1 mm 3 mps 746 mmHg 72%
    18:00 +21°C° 0.1 mm 3 mps 746 mmHg 73%
    19:00 +20°C° 0 mm 2 mps 746 mmHg 77%
    20:00 +18°C° 0 mm 2 mps 745 mmHg 81%
    21:00 +18°C° 0 mm 1 mps 745 mmHg 84%
    22:00 +18°C° 0 mm 1 mps 745 mmHg 84%
    23:00 +18°C° 0 mm 1 mps 745 mmHg 84%
    Show more